datetime,delta storage
1963-06-29,5400.0
1963-06-30,2000.0
1963-07-01,2000.0
1963-07-02,4000.0
1963-07-03,4000.0
1963-07-04,0.0
1963-07-05,3000.0
1963-07-06,0.0
1963-07-07,0.0
1963-07-08,0.0
1963-07-09,0.0
1963-07-10,0.0
1963-07-11,0.0
1963-07-12,0.0
1963-07-13,2000.0
1963-07-14,2000.0
1963-07-15,2000.0
1963-07-16,2000.0
1963-07-17,4000.0
1963-07-18,2000.0
1963-07-19,4000.0
1963-07-20,5000.0
1963-07-21,2000.0
1963-07-22,2000.0
1963-07-23,2000.0
1963-07-24,4000.0
1963-07-25,2000.0
1963-07-26,0.0
1963-07-27,-4000.0
1963-07-28,0.0
1963-07-29,-2000.0
1963-07-30,0.0
1963-07-31,0.0
1963-08-01,0.0
1963-08-02,0.0
1963-08-03,0.0
1963-08-04,2000.0
1963-08-05,0.0
1963-08-06,11000.0
1963-08-07,6000.0
1963-08-08,8000.0
1963-08-09,5000.0
1963-08-10,6000.0
1963-08-11,6000.0
1963-08-12,9000.0
1963-08-13,7000.0
1963-08-14,8000.0
1963-08-15,7000.0
1963-08-16,4000.0
1963-08-17,4000.0
1963-08-18,5000.0
1963-08-19,8000.0
1963-08-20,7000.0
1963-08-21,4000.0
1963-08-22,5000.0
1963-08-23,4000.0
1963-08-24,7000.0
1963-08-25,4000.0
1963-08-26,5000.0
1963-08-27,11000.0
1963-08-28,9000.0
1963-08-29,11000.0
1963-08-30,11000.0
1963-08-31,23000.0
1963-09-01,32000.0
1963-09-02,21000.0
1963-09-03,21000.0
1963-09-04,19000.0
1963-09-05,9000.0
1963-09-06,12000.0
1963-09-07,14000.0
1963-09-08,12000.0
1963-09-09,7000.0
1963-09-10,7000.0
1963-09-11,12000.0
1963-09-12,8000.0
1963-09-13,9000.0
1963-09-14,5000.0
1963-09-15,10000.0
1963-09-16,5000.0
1963-09-17,7000.0
1963-09-18,5000.0
1963-09-19,8000.0
1963-09-20,7000.0
1963-09-21,10000.0
1963-09-22,5000.0
1963-09-23,7000.0
1963-09-24,10000.0
1963-09-25,5000.0
1963-09-26,5000.0
1963-09-27,5000.0
1963-09-28,5000.0
1963-09-29,5000.0
1963-09-30,3000.0
1963-10-01,5000.0
1963-10-02,3000.0
1963-10-03,2000.0
1963-10-04,3000.0
1963-10-05,2000.0
1963-10-06,3000.0
1963-10-07,2000.0
1963-10-08,5000.0
1963-10-09,0.0
1963-10-10,0.0
1963-10-11,3000.0
1963-10-12,0.0
1963-10-13,2000.0
1963-10-14,0.0
1963-10-15,0.0
1963-10-16,3000.0
1963-10-17,0.0
1963-10-18,2000.0
1963-10-19,3000.0
1963-10-20,3000.0
1963-10-21,7000.0
1963-10-22,5000.0
1963-10-23,8000.0
1963-10-24,8000.0
1963-10-25,8000.0
1963-10-26,5000.0
1963-10-27,2000.0
1963-10-28,6000.0
1963-10-29,5000.0
1963-10-30,8000.0
1963-10-31,5000.0
1963-11-01,5000.0
1963-11-02,5000.0
1963-11-03,6000.0
1963-11-04,5000.0
1963-11-05,5000.0
1963-11-06,5000.0
1963-11-07,3000.0
1963-11-08,5000.0
1963-11-09,8000.0
1963-11-10,6000.0
1963-11-11,8000.0
1963-11-12,5000.0
1963-11-13,5000.0
1963-11-14,6000.0
1963-11-15,8000.0
1963-11-16,5000.0
1963-11-17,11000.0
1963-11-18,11000.0
1963-11-19,5000.0
1963-11-20,5000.0
1963-11-21,6000.0
1963-11-22,8000.0
1963-11-23,5000.0
1963-11-24,9000.0
1963-11-25,5000.0
1963-11-26,6000.0
1963-11-27,5000.0
1963-11-28,8000.0
1963-11-29,6000.0
1963-11-30,5000.0
1963-12-01,6000.0
1963-12-02,5000.0
1963-12-03,6000.0
1963-12-04,5000.0
1963-12-05,6000.0
1963-12-06,3000.0
1963-12-07,5000.0
1963-12-08,6000.0
1963-12-09,5000.0
1963-12-10,6000.0
1963-12-11,3000.0
1963-12-12,2000.0
1963-12-13,3000.0
1963-12-14,3000.0
1963-12-15,3000.0
1963-12-16,3000.0
1963-12-17,0.0
1963-12-18,2000.0
1963-12-19,3000.0
1963-12-20,6000.0
1963-12-21,3000.0
1963-12-22,5000.0
1963-12-23,6000.0
1963-12-24,3000.0
1963-12-25,5000.0
1963-12-26,6000.0
1963-12-27,8000.0
1963-12-28,6800.0
1963-12-29,5600.0
1963-12-30,5500.0
1963-12-31,5600.0
1964-01-01,5600.0
1964-01-02,5600.0
1964-01-03,5600.0
1964-01-04,5700.0
1964-01-05,5600.0
1964-01-06,5600.0
1964-01-07,5700.0
1964-01-08,5600.0
1964-01-09,2900.0
1964-01-10,5600.0
1964-01-11,5700.0
1964-01-12,2800.0
1964-01-13,2900.0
1964-01-14,2800.0
1964-01-15,0.0
1964-01-16,2900.0
1964-01-17,2800.0
1964-01-18,2900.0
1964-01-19,2800.0
1964-01-20,2900.0
1964-01-21,5700.0
1964-01-22,5700.0
1964-01-23,5700.0
1964-01-24,5800.0
1964-01-25,5700.0
1964-01-26,5700.0
1964-01-27,8700.0
1964-01-28,5800.0
1964-01-29,5700.0
1964-01-30,2900.0
1964-01-31,2900.0
1964-02-01,0.0
1964-02-02,0.0
1964-02-03,0.0
1964-02-04,0.0
1964-02-05,-2900.0
1964-02-06,0.0
1964-02-07,0.0
1964-02-08,0.0
1964-02-09,0.0
1964-02-10,-2900.0
1964-02-11,0.0
1964-02-12,0.0
1964-02-13,0.0
1964-02-14,0.0
1964-02-15,0.0
1964-02-16,0.0
1964-02-17,2900.0
1964-02-18,0.0
1964-02-19,0.0
1964-02-20,0.0
1964-02-21,0.0
1964-02-22,0.0
1964-02-23,0.0
1964-02-24,2900.0
1964-02-25,0.0
1964-02-26,2900.0
1964-02-27,0.0
1964-02-28,2900.0
1964-02-29,0.0
1964-03-01,0.0
1964-03-02,0.0
1964-03-03,0.0
1964-03-04,0.0
1964-03-05,0.0
1964-03-06,0.0
1964-03-07,0.0
1964-03-08,0.0
1964-03-09,0.0
1964-03-10,2900.0
1964-03-11,0.0
1964-03-12,0.0
1964-03-13,-100.0
1964-03-14,0.0
1964-03-15,0.0
1964-03-16,0.0
1964-03-17,0.0
1964-03-18,0.0
1964-03-19,0.0
1964-03-20,0.0
1964-03-21,0.0
1964-03-22,0.0
1964-03-23,0.0
1964-03-24,0.0
1964-03-25,0.0
1964-03-26,0.0
1964-03-27,-8700.0
1964-03-28,-28800.0
1964-03-29,-23000.0
1964-03-30,-28500.0
1964-03-31,-28300.0
1964-04-01,-25300.0
1964-04-02,-22400.0
1964-04-03,-19500.0
1964-04-04,-19300.0
1964-04-05,-19300.0
1964-04-06,0.0
1964-04-07,-5500.0
1964-04-08,-11000.0
1964-04-09,-8100.0
1964-04-10,-2800.0
1964-04-11,-19000.0
1964-04-12,-8100.0
1964-04-13,-10800.0
1964-04-14,-10800.0
1964-04-15,-10800.0
1964-04-16,-16000.0
1964-04-17,-13400.0
1964-04-18,-10600.0
1964-04-19,-7900.0
1964-04-20,-8000.0
1964-04-21,-7900.0
1964-04-22,-5200.0
1964-04-23,-5300.0
1964-04-24,-5200.0
1964-04-25,-7900.0
1964-04-26,-5200.0
1964-04-27,-2600.0
1964-04-28,-10500.0
1964-04-29,-20700.0
1964-04-30,-20700.0
1964-05-01,-20500.0
1964-05-02,-17800.0
1964-05-03,-5100.0
1964-05-04,-10100.0
1964-05-05,-7600.0
1964-05-06,-5000.0
1964-05-07,-5100.0
1964-05-08,-7500.0
1964-05-09,-7500.0
1964-05-10,-5000.0
1964-05-11,-2500.0
1964-05-12,12500.0
1964-05-13,12500.0
1964-05-14,10100.0
1964-05-15,12700.0
1964-05-16,15200.0
1964-05-17,12800.0
1964-05-18,25600.0
1964-05-19,36300.0
1964-05-20,47200.0
1964-05-21,61200.0
1964-05-22,73300.0
1964-05-23,80300.0
1964-05-24,96200.0
1964-05-25,92700.0
1964-05-26,94800.0
1964-05-27,96900.0
1964-05-28,99200.0
1964-05-29,101700.0
1964-05-30,97400.0
1964-05-31,89500.0
1964-06-01,70800.0
1964-06-02,65000.0
1964-06-03,55300.0
1964-06-04,52500.0
1964-06-05,46000.0
1964-06-06,42900.0
1964-06-07,43300.0
1964-06-08,43700.0
1964-06-09,47800.0
1964-06-10,55800.0
1964-06-11,67000.0
1964-06-12,60200.0
1964-06-13,55100.0
1964-06-14,58100.0
1964-06-15,56600.0
1964-06-16,52100.0
1964-06-17,47800.0
1964-06-18,48500.0
1964-06-19,49000.0
1964-06-20,48500.0
1964-06-21,51100.0
1964-06-22,46100.0
1964-06-23,37900.0
1964-06-24,39000.0
1964-06-25,36700.0
1964-06-26,33100.0
1964-06-27,30600.0
1964-06-28,31300.0
1964-06-29,32200.0
1964-06-30,32000.0
1964-07-01,32500.0
1964-07-02,33700.0
1964-07-03,32000.0
1964-07-04,28100.0
1964-07-05,30000.0
1964-07-06,28000.0
1964-07-07,25300.0
1964-07-08,24000.0
1964-07-09,20900.0
1964-07-10,18800.0
1964-07-11,18700.0
1964-07-12,17900.0
1964-07-13,17500.0
1964-07-14,15200.0
1964-07-15,17100.0
1964-07-16,17100.0
1964-07-17,14900.0
1964-07-18,14400.0
1964-07-19,12100.0
1964-07-20,13600.0
1964-07-21,14000.0
1964-07-22,13600.0
1964-07-23,9400.0
1964-07-24,11300.0
1964-07-25,10300.0
1964-07-26,8500.0
1964-07-27,8500.0
1964-07-28,14200.0
1964-07-29,12800.0
1964-07-30,10900.0
1964-07-31,10900.0
1964-08-01,13800.0
1964-08-02,18100.0
1964-08-03,29700.0
1964-08-04,29800.0
1964-08-05,25000.0
1964-08-06,19800.0
1964-08-07,17500.0
1964-08-08,15000.0
1964-08-09,12700.0
1964-08-10,11700.0
1964-08-11,8800.0
1964-08-12,10200.0
1964-08-13,10300.0
1964-08-14,16700.0
1964-08-15,34400.0
1964-08-16,18700.0
1964-08-17,0.0
1964-08-18,8400.0
1964-08-19,500.0
1964-08-20,500.0
1964-08-21,0.0
1964-08-22,-1500.0
1964-08-23,-2000.0
1964-08-24,-2400.0
1964-08-25,-2500.0
1964-08-26,-1500.0
1964-08-27,500.0
1964-08-28,3400.0
1964-08-29,-1400.0
1964-08-30,-500.0
1964-08-31,3400.0
1964-09-01,0.0
1964-09-02,-2500.0
1964-09-03,0.0
1964-09-04,-500.0
1964-09-05,0.0
1964-09-06,-400.0
1964-09-07,-500.0
1964-09-08,0.0
1964-09-09,0.0
1964-09-10,-100.0
1964-09-11,500.0
1964-09-12,500.0
1964-09-13,-1000.0
1964-09-14,500.0
1964-09-15,1500.0
1964-09-16,0.0
1964-09-17,500.0
1964-09-18,0.0
1964-09-19,-500.0
1964-09-20,0.0
1964-09-21,37100.0
1964-09-22,5000.0
1964-09-23,3500.0
1964-09-24,6900.0
1964-09-25,5000.0
1964-09-26,4500.0
1964-09-27,6000.0
1964-09-28,5400.0
1964-09-29,0.0
1964-09-30,-1500.0
1964-10-01,0.0
1964-10-02,-1000.0
1964-10-03,-500.0
1964-10-04,-1900.0
1964-10-05,-1000.0
1964-10-06,-1000.0
1964-10-07,1500.0
1964-10-08,900.0
1964-10-09,2000.0
1964-10-10,1000.0
1964-10-11,-4500.0
1964-10-12,500.0
1964-10-13,0.0
1964-10-14,-500.0
1964-10-15,500.0
1964-10-16,-2000.0
1964-10-17,3500.0
1964-10-18,500.0
1964-10-19,-500.0
1964-10-20,1500.0
1964-10-21,1000.0
1964-10-22,500.0
1964-10-23,1000.0
1964-10-24,1500.0
1964-10-25,1000.0
1964-10-26,1000.0
1964-10-27,-1000.0
1964-10-28,2500.0
1964-10-29,-500.0
1964-10-30,5500.0
1964-10-31,-500.0
1964-11-01,1500.0
1964-11-02,1500.0
1964-11-03,-2000.0
1964-11-04,-3500.0
1964-11-05,1500.0
1964-11-06,1900.0
1964-11-07,-1000.0
1964-11-08,-1900.0
1964-11-09,-5000.0
1964-11-10,3000.0
1964-11-11,-4500.0
1964-11-12,-5500.0
1964-11-13,-2000.0
1964-11-14,-2000.0
1964-11-15,2500.0
1964-11-16,-5000.0
1964-11-17,-2500.0
1964-11-18,-1500.0
1964-11-19,500.0
1964-11-20,500.0
1964-11-21,500.0
1964-11-22,500.0
1964-11-23,-500.0
1964-11-24,1000.0
1964-11-25,0.0
1964-11-26,-2500.0
1964-11-27,1000.0
1964-11-28,-1500.0
1964-11-29,2500.0
1964-11-30,500.0
1964-12-01,500.0
1964-12-02,3000.0
1964-12-03,2400.0
1964-12-04,-500.0
1964-12-05,1500.0
1964-12-06,1500.0
1964-12-07,500.0
1964-12-08,0.0
1964-12-09,1000.0
1964-12-10,0.0
1964-12-11,-4500.0
1964-12-12,3500.0
1964-12-13,-5000.0
1964-12-14,1000.0
1964-12-15,-2000.0
1964-12-16,-500.0
1964-12-17,-4900.0
1964-12-18,-7500.0
1964-12-19,-6500.0
1964-12-20,-6900.0
1964-12-21,-3000.0
1964-12-22,-1500.0
1964-12-23,4000.0
1964-12-24,3900.0
1964-12-25,16900.0
1964-12-26,11500.0
1964-12-27,10000.0
1964-12-28,7400.0
1964-12-29,0.0
1964-12-30,-3000.0
1964-12-31,500.0
1965-01-01,500.0
1965-01-02,1000.0
1965-01-03,-4000.0
1965-01-04,-1900.0
1965-01-05,-4000.0
1965-01-06,-2000.0
1965-01-07,-4000.0
1965-01-08,-1500.0
1965-01-09,1000.0
1965-01-10,2500.0
1965-01-11,1400.0
1965-01-12,1500.0
1965-01-13,0.0
1965-01-14,0.0
1965-01-15,-2000.0
1965-01-16,1500.0
1965-01-17,500.0
1965-01-18,-500.0
1965-01-19,-1500.0
1965-01-20,-2500.0
1965-01-21,4500.0
1965-01-22,0.0
1965-01-23,0.0
1965-01-24,-2000.0
1965-01-25,-3500.0
1965-01-26,-2000.0
1965-01-27,-1900.0
1965-01-28,400.0
1965-01-29,-2400.0
1965-01-30,-1500.0
1965-01-31,-4000.0
1965-02-01,1000.0
1965-02-02,2000.0
1965-02-03,3900.0
1965-02-04,2500.0
1965-02-05,3000.0
1965-02-06,0.0
1965-02-07,4000.0
1965-02-08,3000.0
1965-02-09,2000.0
1965-02-10,5000.0
1965-02-11,-1000.0
1965-02-12,-8500.0
1965-02-13,-10000.0
1965-02-14,-8900.0
1965-02-15,-10500.0
1965-02-16,-3000.0
1965-02-17,-3900.0
1965-02-18,2400.0
1965-02-19,5000.0
1965-02-20,-500.0
1965-02-21,-500.0
1965-02-22,3000.0
1965-02-23,6500.0
1965-02-24,400.0
1965-02-25,5500.0
1965-02-26,6500.0
1965-02-27,7500.0
1965-02-28,8400.0
1965-03-01,1500.0
1965-03-02,-2000.0
1965-03-03,-16400.0
1965-03-04,-12500.0
1965-03-05,4500.0
1965-03-06,5500.0
1965-03-07,3000.0
1965-03-08,2000.0
1965-03-09,2400.0
1965-03-10,5500.0
1965-03-11,3500.0
1965-03-12,4500.0
1965-03-13,3500.0
1965-03-14,2000.0
1965-03-15,2500.0
1965-03-16,-25900.0
1965-03-17,-31400.0
1965-03-18,-9400.0
1965-03-19,3500.0
1965-03-20,4400.0
1965-03-21,5500.0
1965-03-22,3500.0
1965-03-23,0.0
1965-03-24,3400.0
1965-03-25,2500.0
1965-03-26,5000.0
1965-03-27,9400.0
1965-03-28,9000.0
1965-03-29,3000.0
1965-03-30,3500.0
1965-03-31,3000.0
1965-04-01,2500.0
1965-04-02,-4000.0
1965-04-03,-1000.0
1965-04-04,1000.0
1965-04-05,2500.0
1965-04-06,-2500.0
1965-04-07,9000.0
1965-04-08,10500.0
1965-04-09,13000.0
1965-04-10,-21000.0
1965-04-11,-41400.0
1965-04-12,-8000.0
1965-04-13,10500.0
1965-04-14,3900.0
1965-04-15,2000.0
1965-04-16,-6900.0
1965-04-17,-3500.0
1965-04-18,1500.0
1965-04-19,-500.0
1965-04-20,500.0
1965-04-21,16400.0
1965-04-22,13500.0
1965-04-23,-8500.0
1965-04-24,-6000.0
1965-04-25,-2500.0
1965-04-26,-2000.0
1965-04-27,-2000.0
1965-04-28,-5000.0
1965-04-29,-12900.0
1965-04-30,-7400.0
1965-05-01,2900.0
1965-05-02,4500.0
1965-05-03,14400.0
1965-05-04,-8400.0
1965-05-05,25800.0
1965-05-06,-2500.0
1965-05-07,-5400.0
1965-05-08,-13500.0
1965-05-09,-2500.0
1965-05-10,8000.0
1965-05-11,-10900.0
1965-05-12,9400.0
1965-05-13,7000.0
1965-05-14,-5500.0
1965-05-15,7500.0
1965-05-16,-3500.0
1965-05-17,500.0
1965-05-18,13400.0
1965-05-19,12500.0
1965-05-20,16000.0
1965-05-21,5000.0
1965-05-22,8000.0
1965-05-23,7000.0
1965-05-24,6000.0
1965-05-25,19600.0
1965-05-26,3000.0
1965-05-27,-6500.0
1965-05-28,-11600.0
1965-05-29,-22000.0
1965-05-30,-15000.0
1965-05-31,-18000.0
1965-06-01,9000.0
1965-06-02,2500.0
1965-06-03,-6000.0
1965-06-04,4000.0
1965-06-05,2500.0
1965-06-06,-10000.0
1965-06-07,-10500.0
1965-06-08,-5500.0
1965-06-09,4000.0
1965-06-10,10000.0
1965-06-11,10400.0
1965-06-12,1000.0
1965-06-13,8000.0
1965-06-14,24100.0
1965-06-15,47700.0
1965-06-16,76600.0
1965-06-17,70000.0
1965-06-18,67500.0
1965-06-19,55500.0
1965-06-20,51100.0
1965-06-21,46800.0
1965-06-22,45400.0
1965-06-23,47800.0
1965-06-24,36300.0
1965-06-25,37600.0
1965-06-26,69600.0
1965-06-27,96600.0
1965-06-28,87100.0
1965-06-29,69000.0
1965-06-30,59400.0
1965-07-01,55300.0
1965-07-02,55600.0
1965-07-03,49600.0
1965-07-04,52800.0
1965-07-05,50800.0
1965-07-06,50500.0
1965-07-07,52500.0
1965-07-08,53400.0
1965-07-09,51900.0
1965-07-10,55100.0
1965-07-11,50100.0
1965-07-12,44400.0
1965-07-13,46300.0
1965-07-14,44200.0
1965-07-15,46800.0
1965-07-16,36000.0
1965-07-17,30700.0
1965-07-18,43100.0
1965-07-19,29600.0
1965-07-20,27800.0
1965-07-21,33000.0
1965-07-22,29200.0
1965-07-23,30000.0
1965-07-24,23800.0
1965-07-25,20100.0
1965-07-26,28300.0
1965-07-27,24000.0
1965-07-28,26600.0
1965-07-29,26000.0
1965-07-30,21600.0
1965-07-31,12100.0
1965-08-01,17800.0
1965-08-02,21700.0
1965-08-03,34000.0
1965-08-04,43000.0
1965-08-05,21300.0
1965-08-06,12200.0
1965-08-07,14900.0
1965-08-08,12300.0
1965-08-09,8400.0
1965-08-10,6500.0
1965-08-11,-6500.0
1965-08-12,2000.0
1965-08-13,-4600.0
1965-08-14,-7100.0
1965-08-15,-700.0
1965-08-16,-1900.0
1965-08-17,-6500.0
1965-08-18,-9000.0
1965-08-19,-5800.0
1965-08-20,-5900.0
1965-08-21,-7000.0
1965-08-22,-10400.0
1965-08-23,-9000.0
1965-08-24,-9700.0
1965-08-25,-14100.0
1965-08-26,-14100.0
1965-08-27,-14200.0
1965-08-28,-15300.0
1965-08-29,-5800.0
1965-08-30,-16000.0
1965-08-31,-3200.0
1965-09-01,-7600.0
1965-09-02,-12800.0
1965-09-03,-14000.0
1965-09-04,-6400.0
1965-09-05,-3800.0
1965-09-06,-12700.0
1965-09-07,-5700.0
1965-09-08,-13300.0
1965-09-09,-5100.0
1965-09-10,-5100.0
1965-09-11,-8200.0
1965-09-12,-6300.0
1965-09-13,-7600.0
1965-09-14,-2600.0
1965-09-15,-5600.0
1965-09-16,-700.0
1965-09-17,-9400.0
1965-09-18,-1900.0
1965-09-19,-3200.0
1965-09-20,-4400.0
1965-09-21,5000.0
1965-09-22,5700.0
1965-09-23,10700.0
1965-09-24,8900.0
1965-09-25,6900.0
1965-09-26,4500.0
1965-09-27,5000.0
1965-09-28,3200.0
1965-09-29,5700.0
1965-09-30,3200.0
1965-10-01,4400.0
1965-10-02,13900.0
1965-10-03,12800.0
1965-10-04,8900.0
1965-10-05,3100.0
1965-10-06,1900.0
1965-10-07,700.0
1965-10-08,5100.0
1965-10-09,1900.0
1965-10-10,2500.0
1965-10-11,3900.0
1965-10-12,1900.0
1965-10-13,-3900.0
1965-10-14,-2500.0
1965-10-15,-1300.0
1965-10-16,10800.0
1965-10-17,2600.0
1965-10-18,5100.0
1965-10-19,3200.0
1965-10-20,0.0
1965-10-21,2500.0
1965-10-22,1300.0
1965-10-23,2600.0
1965-10-24,1900.0
1965-10-25,0.0
1965-10-26,2500.0
1965-10-27,-1900.0
1965-10-28,1900.0
1965-10-29,1900.0
1965-10-30,2600.0
1965-10-31,1900.0
1965-11-01,0.0
1965-11-02,-3200.0
1965-11-03,-1300.0
1965-11-04,-1900.0
1965-11-05,-1300.0
1965-11-06,-1300.0
1965-11-07,700.0
1965-11-08,-3900.0
1965-11-09,-3100.0
1965-11-10,-5200.0
1965-11-11,-2500.0
1965-11-12,-2600.0
1965-11-13,4500.0
1965-11-14,600.0
1965-11-15,3200.0
1965-11-16,2600.0
1965-11-17,-2600.0
1965-11-18,-2500.0
1965-11-19,600.0
1965-11-20,2600.0
1965-11-21,5700.0
1965-11-22,5800.0
1965-11-23,5700.0
1965-11-24,7000.0
1965-11-25,9000.0
1965-11-26,11500.0
1965-11-27,12900.0
1965-11-28,9600.0
1965-11-29,5800.0
1965-11-30,7100.0
1965-12-01,5100.0
1965-12-02,1900.0
1965-12-03,3200.0
1965-12-04,5200.0
1965-12-05,7700.0
1965-12-06,5200.0
1965-12-07,2600.0
1965-12-08,2500.0
1965-12-09,700.0
1965-12-10,9700.0
1965-12-11,12200.0
1965-12-12,0.0
1965-12-13,9100.0
1965-12-14,5800.0
1965-12-15,5200.0
1965-12-16,7100.0
1965-12-17,2000.0
1965-12-18,4500.0
1965-12-19,4600.0
1965-12-20,600.0
1965-12-21,-4500.0
1965-12-22,1200.0
1965-12-23,-1300.0
1965-12-24,3900.0
1965-12-25,9100.0
1965-12-26,13700.0
1965-12-27,3200.0
1965-12-28,0.0
1965-12-29,700.0
1965-12-30,3200.0
1965-12-31,9800.0
1966-01-01,16900.0
1966-01-02,15100.0
1966-01-03,6500.0
1966-01-04,4600.0
1966-01-05,7100.0
1966-01-06,0.0
1966-01-07,2700.0
1966-01-08,2600.0
1966-01-09,9100.0
1966-01-10,4600.0
1966-01-11,2000.0
1966-01-12,3900.0
1966-01-13,5300.0
1966-01-14,3900.0
1966-01-15,5300.0
1966-01-16,7800.0
1966-01-17,4000.0
1966-01-18,1900.0
1966-01-19,-4600.0
1966-01-20,-3200.0
1966-01-21,-6000.0
1966-01-22,700.0
1966-01-23,3300.0
1966-01-24,-6600.0
1966-01-25,-5300.0
1966-01-26,-7800.0
1966-01-27,-7900.0
1966-01-28,-7800.0
1966-01-29,-7300.0
1966-01-30,-2600.0
1966-01-31,-10400.0
1966-02-01,-6600.0
1966-02-02,-3200.0
1966-02-03,-5300.0
1966-02-04,-5200.0
1966-02-05,-5800.0
1966-02-06,600.0
1966-02-07,-2000.0
1966-02-08,-600.0
1966-02-09,-3900.0
1966-02-10,-5200.0
1966-02-11,-10500.0
1966-02-12,-8400.0
1966-02-13,-3300.0
1966-02-14,-7100.0
1966-02-15,-6500.0
1966-02-16,-9800.0
1966-02-17,-2600.0
1966-02-18,-600.0
1966-02-19,3900.0
1966-02-20,7100.0
1966-02-21,3300.0
1966-02-22,4500.0
1966-02-23,700.0
1966-02-24,3900.0
1966-02-25,3200.0
1966-02-26,0.0
1966-02-27,5900.0
1966-02-28,-3300.0
1966-03-01,-3200.0
1966-03-02,-8500.0
1966-03-03,-5200.0
1966-03-04,-5800.0
1966-03-05,-5900.0
1966-03-06,3300.0
1966-03-07,-5200.0
1966-03-08,-7200.0
1966-03-09,-5100.0
1966-03-10,-3900.0
1966-03-11,-2000.0
1966-03-12,2600.0
1966-03-13,13000.0
1966-03-14,9000.0
1966-03-15,15000.0
1966-03-16,18200.0
1966-03-17,12300.0
1966-03-18,17000.0
1966-03-19,22200.0
1966-03-20,22300.0
1966-03-21,32800.0
1966-03-22,-9900.0
1966-03-23,11200.0
1966-03-24,5200.0
1966-03-25,3300.0
1966-03-26,7900.0
1966-03-27,5300.0
1966-03-28,4600.0
1966-03-29,-2000.0
1966-03-30,3900.0
1966-03-31,11200.0
1966-04-01,9300.0
1966-04-02,15200.0
1966-04-03,9200.0
1966-04-04,13300.0
1966-04-05,17800.0
1966-04-06,14000.0
1966-04-07,9900.0
1966-04-08,9300.0
1966-04-09,9400.0
1966-04-10,8600.0
1966-04-11,6000.0
1966-04-12,4000.0
1966-04-13,4000.0
1966-04-14,2700.0
1966-04-15,12000.0
1966-04-16,0.0
1966-04-17,7300.0
1966-04-18,-600.0
1966-04-19,-2700.0
1966-04-20,2000.0
1966-04-21,2000.0
1966-04-22,2000.0
1966-04-23,2000.0
1966-04-24,8000.0
1966-04-25,5400.0
1966-04-26,600.0
1966-04-27,-5300.0
1966-04-28,-6700.0
1966-04-29,-4700.0
1966-04-30,-4700.0
1966-05-01,-3300.0
1966-05-02,-2000.0
1966-05-03,1300.0
1966-05-04,4000.0
1966-05-05,6700.0
1966-05-06,8700.0
1966-05-07,13400.0
1966-05-08,24800.0
1966-05-09,19500.0
1966-05-10,29600.0
1966-05-11,40500.0
1966-05-12,31200.0
1966-05-13,35400.0
1966-05-14,29300.0
1966-05-15,27400.0
1966-05-16,16400.0
1966-05-17,20600.0
1966-05-18,0.0
1966-05-19,2100.0
1966-05-20,-4800.0
1966-05-21,2700.0
1966-05-22,2800.0
1966-05-23,11000.0
1966-05-24,9600.0
1966-05-25,10300.0
1966-05-26,6200.0
1966-05-27,5600.0
1966-05-28,7500.0
1966-05-29,11100.0
1966-05-30,9700.0
1966-05-31,2700.0
1966-06-01,4900.0
1966-06-02,9000.0
1966-06-03,11100.0
1966-06-04,8300.0
1966-06-05,4900.0
1966-06-06,6900.0
1966-06-07,13900.0
1966-06-08,13300.0
1966-06-09,4800.0
1966-06-10,0.0
1966-06-11,-2800.0
1966-06-12,2800.0
1966-06-13,-1400.0
1966-06-14,-4200.0
1966-06-15,-4100.0
1966-06-16,-700.0
1966-06-17,-9100.0
1966-06-18,-2800.0
1966-06-19,0.0
1966-06-20,-4800.0
1966-06-21,-700.0
1966-06-22,-2100.0
1966-06-23,-2800.0
1966-06-24,0.0
1966-06-25,0.0
1966-06-26,3500.0
1966-06-27,-4200.0
1966-06-28,-4900.0
1966-06-29,-6200.0
1966-06-30,-9100.0
1966-07-01,-1400.0
1966-07-02,-6200.0
1966-07-03,700.0
1966-07-04,-4800.0
1966-07-05,-6300.0
1966-07-06,-11100.0
1966-07-07,-9600.0
1966-07-08,-9700.0
1966-07-09,-15900.0
1966-07-10,-4800.0
1966-07-11,-17200.0
1966-07-12,-13800.0
1966-07-13,-13000.0
1966-07-14,-17900.0
1966-07-15,-10200.0
1966-07-16,-16500.0
1966-07-17,-15000.0
1966-07-18,-10900.0
1966-07-19,-13000.0
1966-07-20,-11500.0
1966-07-21,-10200.0
1966-07-22,-17700.0
1966-07-23,-15600.0
1966-07-24,-11500.0
1966-07-25,-11500.0
1966-07-26,-7400.0
1966-07-27,-14900.0
1966-07-28,-8100.0
1966-07-29,-5400.0
1966-07-30,-18800.0
1966-07-31,-5400.0
1966-08-01,-8100.0
1966-08-02,-16100.0
1966-08-03,-7400.0
1966-08-04,-24700.0
1966-08-05,-6700.0
1966-08-06,-15400.0
1966-08-07,-6700.0
1966-08-08,-12600.0
1966-08-09,0.0
1966-08-10,-23400.0
1966-08-11,-16600.0
1966-08-12,-9900.0
1966-08-13,-15900.0
1966-08-14,-14600.0
1966-08-15,-13200.0
1966-08-16,-12600.0
1966-08-17,-18500.0
1966-08-18,-17100.0
1966-08-19,-9200.0
1966-08-20,-15800.0
1966-08-21,-11100.0
1966-08-22,-13800.0
1966-08-23,-11800.0
1966-08-24,-15700.0
1966-08-25,-14400.0
1966-08-26,-12400.0
1966-08-27,-11100.0
1966-08-28,-11700.0
1966-08-29,-14300.0
1966-08-30,-11000.0
1966-08-31,-5200.0
1966-09-01,-3300.0
1966-09-02,-600.0
1966-09-03,0.0
1966-09-04,0.0
1966-09-05,-2600.0
1966-09-06,-5200.0
1966-09-07,-9100.0
1966-09-08,-7700.0
1966-09-09,-10400.0
1966-09-10,-16200.0
1966-09-11,-6400.0
1966-09-12,-17400.0
1966-09-13,-5200.0
1966-09-14,-6400.0
1966-09-15,-10300.0
1966-09-16,-10300.0
1966-09-17,-7700.0
1966-09-18,-12200.0
1966-09-19,-7000.0
1966-09-20,-17300.0
1966-09-21,-13400.0
1966-09-22,-16000.0
1966-09-23,-15900.0
1966-09-24,-16600.0
1966-09-25,-10800.0
1966-09-26,-12000.0
1966-09-27,-14600.0
1966-09-28,-10800.0
1966-09-29,-14500.0
1966-09-30,-10800.0
1966-10-01,-16400.0
1966-10-02,-9400.0
1966-10-03,-5700.0
1966-10-04,-13200.0
1966-10-05,-15700.0
1966-10-06,-2500.0
1966-10-07,-5700.0
1966-10-08,-5000.0
1966-10-09,0.0
1966-10-10,-5000.0
1966-10-11,-8200.0
1966-10-12,-5600.0
1966-10-13,-6300.0
1966-10-14,-1200.0
1966-10-15,0.0
1966-10-16,5600.0
1966-10-17,3200.0
1966-10-18,3700.0
1966-10-19,0.0
1966-10-20,-3800.0
1966-10-21,-3100.0
1966-10-22,-600.0
1966-10-23,2500.0
1966-10-24,-1900.0
1966-10-25,-6200.0
1966-10-26,-7500.0
1966-10-27,-8800.0
1966-10-28,-8700.0
1966-10-29,-6900.0
1966-10-30,-5600.0
1966-10-31,-8700.0
1966-11-01,-10600.0
1966-11-02,-5000.0
1966-11-03,-8700.0
1966-11-04,-6800.0
1966-11-05,-6200.0
1966-11-06,3100.0
1966-11-07,-1200.0
1966-11-08,-1900.0
1966-11-09,-6800.0
1966-11-10,-9900.0
1966-11-11,-13000.0
1966-11-12,-6200.0
1966-11-13,-1200.0
1966-11-14,-8100.0
1966-11-15,-4900.0
1966-11-16,-11700.0
1966-11-17,-11700.0
1966-11-18,-8000.0
1966-11-19,-13500.0
1966-11-20,-3100.0
1966-11-21,-10400.0
1966-11-22,-9800.0
1966-11-23,-8000.0
1966-11-24,-1800.0
1966-11-25,-12900.0
1966-11-26,-14000.0
1966-11-27,-3100.0
1966-11-28,-11000.0
1966-11-29,-4800.0
1966-11-30,-7300.0
1966-12-01,-4300.0
1966-12-02,-3000.0
1966-12-03,-4300.0
1966-12-04,1200.0
1966-12-05,-7300.0
1966-12-06,-3600.0
1966-12-07,12700.0
1966-12-08,9200.0
1966-12-09,7300.0
1966-12-10,9100.0
1966-12-11,6100.0
1966-12-12,0.0
1966-12-13,-2500.0
1966-12-14,-4800.0
1966-12-15,-5500.0
1966-12-16,-8500.0
1966-12-17,-7300.0
1966-12-18,-100.0
1966-12-19,-4200.0
1966-12-20,-12800.0
1966-12-21,-12100.0
1966-12-22,-6100.0
1966-12-23,-11500.0
1966-12-24,-11500.0
1966-12-25,1800.0
1966-12-26,-1800.0
1966-12-27,-4800.0
1966-12-28,-10900.0
1966-12-29,-19900.0
1966-12-30,-13800.0
1966-12-31,-15000.0
1967-01-01,-9600.0
1967-01-02,-5400.0
1967-01-03,-18000.0
1967-01-04,-19700.0
1967-01-05,-20300.0
1967-01-06,-8300.0
1967-01-07,-10200.0
1967-01-08,-2300.0
1967-01-09,-10700.0
1967-01-10,-13100.0
1967-01-11,-10700.0
1967-01-12,-11800.0
1967-01-13,-10600.0
1967-01-14,-14200.0
1967-01-15,-5300.0
1967-01-16,-5900.0
1967-01-17,-5300.0
1967-01-18,-8900.0
1967-01-19,-7000.0
1967-01-20,-10000.0
1967-01-21,-7100.0
1967-01-22,3000.0
1967-01-23,-7100.0
1967-01-24,-1700.0
1967-01-25,-7100.0